Date String (YYYY-MM-DD hh:mm:ss) UTC,Instrument flags,absolute air pressure of the measurement (hPa),sample flow rate (lpm),inlet stack bypass flow (lpm),air temperature of the measurement (°C),ambient temperature measured by the external sensor (°C),aerosol sample conditioner tube jacket temperature (°C),OPC LED temperature (°C),internal box temperature (°C),relative humidity of the measurement (%),span deviation,mass concentration of particles derived from Lorenz-Mie calculation of OPC scattering (μg/m³),mass concentration of particles derived from Lorenz-Mie calculation of OPC scattering (μg/m³),mass concentration of particles derived from Lorenz-Mie calculation of OPC scattering (μg/m³)
DateTimeUTC,F1_M11,P_M11,Q1_M11,Q2_M11,T1_M11,T2_M11,T3_M11,T4_M11,T5_M11,U1_M11,ZSPAN_M11,X0_M11,X2_M11,X1_M11
2023-10-30 09:00:00,SystemResetWarning,0838.0,5.00,000.00,021.3,020.6,000.0,029.7,022.6,8.8,0000.0,0003.98,0003.40,0003.31
2023-10-30 09:01:00,SystemResetWarning,0837.9,5.00,000.00,021.3,020.3,000.0,029.7,022.5,8.8,0000.0,0004.03,0003.41,0003.31
2023-10-30 09:02:00,SystemResetWarning,0838.0,4.99,000.00,021.2,020.2,000.0,029.7,022.5,8.8,0000.0,0004.07,0003.41,0003.31
2023-10-30 09:03:00,SystemResetWarning,0838.0,5.00,000.00,021.2,020.0,000.0,029.7,022.4,8.8,0000.0,0004.07,0003.40,0003.30
2023-10-30 09:04:00,SystemResetWarning,0838.0,5.00,000.00,021.2,020.0,000.0,029.6,022.5,8.8,0000.0,0004.06,0003.40,0003.30
2023-10-30 09:05:00,SystemResetWarning,0838.0,5.01,000.00,021.3,020.7,000.0,029.5,023.0,8.8,0000.0,0003.98,0003.38,0003.29
2023-10-30 09:06:00,SystemResetWarning,0838.0,5.00,000.00,021.4,021.4,000.0,029.5,023.3,8.7,0000.0,0003.91,0003.36,0003.28
2023-10-30 09:07:00,SystemResetWarning,0838.0,4.98,000.00,021.5,021.4,000.0,029.6,023.2,8.7,0000.0,0003.86,0003.36,0003.28
2023-10-30 09:08:00,SystemResetWarning,0837.9,5.00,000.00,021.4,021.1,000.0,029.6,023.0,8.7,0000.0,0003.89,0003.36,0003.30
2023-10-30 09:09:00,SystemResetWarning,0837.8,5.01,000.00,021.4,020.9,000.0,029.7,022.8,8.7,0000.0,0003.98,0003.38,0003.31
2023-10-30 09:10:00,SystemResetWarning,0837.8,5.00,000.00,021.3,020.6,000.0,029.7,022.7,8.7,0000.0,0004.00,0003.39,0003.32
2023-10-30 09:11:00,SystemResetWarning,0837.8,5.00,000.00,021.3,020.4,000.0,029.7,022.6,8.7,0000.0,0004.01,0003.39,0003.32
2023-10-30 09:12:00,SystemResetWarning,0837.8,4.99,000.00,021.2,020.2,000.0,029.7,022.5,8.7,0000.0,0004.00,0003.39,0003.32
2023-10-30 09:13:00,SystemResetWarning,0837.7,5.00,000.00,021.2,020.0,000.0,029.7,022.4,8.7,0000.0,0004.00,0003.40,0003.33
2023-10-30 09:14:00,SystemResetWarning,0837.8,5.01,000.00,021.2,019.9,000.0,029.6,022.4,8.7,0000.0,0003.98,0003.39,0003.33
2023-10-30 09:15:00,SystemResetWarning,0837.8,5.01,000.00,021.2,020.1,000.0,029.6,022.7,8.7,0000.0,0005.07,0003.41,0003.33
2023-10-30 09:16:00,SystemResetWarning,0837.7,5.00,000.00,021.3,020.9,000.0,029.5,023.1,8.7,0000.0,0005.29,0003.42,0003.34
2023-10-30 09:17:00,SystemResetWarning,0837.8,4.99,000.00,021.4,021.4,000.0,029.6,023.2,8.6,0000.0,0005.32,0003.42,0003.33
2023-10-30 09:18:00,SystemResetWarning,0837.8,4.99,000.00,021.4,021.2,000.0,029.6,023.1,8.6,0000.0,0005.34,0003.43,0003.33
2023-10-30 09:19:00,SystemResetWarning,0837.8,5.00,000.00,021.4,020.9,000.0,029.6,022.9,8.6,0000.0,0005.34,0003.43,0003.33
2023-10-30 09:20:00,SystemResetWarning,0837.8,5.00,000.00,021.4,020.7,000.0,029.7,022.7,8.6,0000.0,0005.31,0003.42,0003.33
2023-10-30 09:21:00,SystemResetWarning,0837.8,5.00,000.00,021.3,020.4,000.0,029.7,022.6,8.6,0000.0,0005.26,0003.40,0003.32
2023-10-30 09:22:00,SystemResetWarning,0837.7,5.00,000.00,021.3,020.2,000.0,029.7,022.6,8.7,0000.0,0005.23,0003.40,0003.32
2023-10-30 09:23:00,SystemResetWarning,0837.7,5.00,000.00,021.2,020.1,000.0,029.7,022.5,8.7,0000.0,0005.24,0003.40,0003.31
2023-10-30 09:24:00,SystemResetWarning,0837.7,4.99,000.00,021.2,019.9,000.0,029.6,022.4,8.7,0000.0,0005.21,0003.39,0003.30
2023-10-30 09:25:00,SystemResetWarning,0837.7,5.00,000.00,021.2,020.0,000.0,029.6,022.6,8.7,0000.0,0005.23,0003.39,0003.30
2023-10-30 09:26:00,SystemResetWarning,0837.7,5.02,000.00,021.3,020.9,000.0,029.5,023.0,8.6,0000.0,0004.17,0003.38,0003.30
2023-10-30 09:27:00,SystemResetWarning,0837.8,5.00,000.00,021.4,021.5,000.0,029.6,023.3,8.6,0000.0,0004.01,0003.38,0003.29
2023-10-30 09:28:00,SystemResetWarning,0837.7,4.99,000.00,021.5,021.3,000.0,029.6,023.1,8.6,0000.0,0004.02,0003.38,0003.29
2023-10-30 09:29:00,SystemResetWarning,0837.7,4.99,000.00,021.4,021.1,000.0,029.7,022.9,8.6,0000.0,0004.11,0003.39,0003.29
2023-10-30 09:30:00,SystemResetWarning,0837.7,5.01,000.00,021.4,020.8,000.0,029.7,022.8,8.6,0000.0,0004.21,0003.40,0003.28
2023-10-30 09:31:00,SystemResetWarning,0837.7,5.01,000.00,021.3,020.5,000.0,029.7,022.6,8.6,0000.0,0004.30,0003.41,0003.28
2023-10-30 09:32:00,SystemResetWarning,0837.6,5.00,000.00,021.3,020.3,000.0,029.7,022.5,8.6,0000.0,0004.32,0003.42,0003.29
2023-10-30 09:33:00,SystemResetWarning,0837.7,5.00,000.00,021.2,020.1,000.0,029.7,022.4,8.6,0000.0,0004.33,0003.42,0003.29
2023-10-30 09:34:00,SystemResetWarning,0837.7,4.99,000.00,021.2,020.0,000.0,029.7,022.4,8.7,0000.0,0004.39,0003.43,0003.29
2023-10-30 09:35:00,SystemResetWarning,0837.7,4.99,000.00,021.1,019.8,000.0,029.6,022.4,8.7,0000.0,0004.40,0003.42,0003.28
2023-10-30 09:36:00,SystemResetWarning,0837.6,4.99,000.00,021.2,020.3,000.0,029.6,022.7,8.7,0000.0,0004.44,0003.43,0003.28
2023-10-30 09:37:00,SystemResetWarning,0837.6,5.02,000.00,021.3,021.2,000.0,029.5,023.2,8.6,0000.0,0004.44,0003.42,0003.28
2023-10-30 09:38:00,SystemResetWarning,0837.7,4.99,000.00,021.5,021.9,000.0,029.5,023.4,8.6,0000.0,0004.35,0003.40,0003.26
2023-10-30 09:39:00,SystemResetWarning,0837.6,4.99,000.00,021.5,021.8,000.0,029.6,023.3,8.5,0000.0,0004.35,0003.39,0003.26
2023-10-30 09:40:00,SystemResetWarning,0837.6,5.00,000.00,021.5,021.4,000.0,029.7,023.1,8.5,0000.0,0004.30,0003.38,0003.25
2023-10-30 09:41:00,SystemResetWarning,0837.6,5.00,000.00,021.5,021.1,000.0,029.7,022.9,8.5,0000.0,0004.18,0003.36,0003.25
2023-10-30 09:42:00,SystemResetWarning,0837.6,5.00,000.00,021.4,020.8,000.0,029.7,022.7,8.5,0000.0,0004.07,0003.35,0003.25
2023-10-30 09:43:00,SystemResetWarning,0837.5,4.99,000.00,021.4,020.6,000.0,029.7,022.6,8.6,0000.0,0004.07,0003.34,0003.23
2023-10-30 09:44:00,SystemResetWarning,0837.5,5.00,000.00,021.3,020.3,000.0,029.7,022.5,8.6,0000.0,0004.09,0003.34,0003.23
2023-10-30 09:45:00,SystemResetWarning,0837.4,5.01,000.00,021.3,020.1,000.0,029.7,022.4,8.6,0000.0,0004.13,0003.34,0003.23
2023-10-30 09:46:00,SystemResetWarning,0837.4,5.00,000.00,021.2,020.0,000.0,029.7,022.4,8.6,0000.0,0004.06,0003.33,0003.23
2023-10-30 09:47:00,SystemResetWarning,0837.4,5.01,000.00,021.2,019.8,000.0,029.7,022.4,8.6,0000.0,0003.98,0003.31,0003.22
2023-10-30 09:48:00,SystemResetWarning,0837.4,5.01,000.00,021.2,020.0,000.0,029.6,022.6,8.7,0000.0,0003.93,0003.30,0003.22
2023-10-30 09:49:00,SystemResetWarning,0837.4,5.01,000.00,021.3,020.8,000.0,029.6,023.0,8.6,0000.0,0004.07,0003.33,0003.22
2023-10-30 09:50:00,SystemResetWarning,0837.4,5.00,000.00,021.4,021.7,000.0,029.6,023.4,8.5,0000.0,0004.17,0003.35,0003.23
2023-10-30 09:51:00,SystemResetWarning,0837.4,5.00,000.00,021.5,021.8,000.0,029.6,023.3,8.5,0000.0,0004.17,0003.34,0003.22
2023-10-30 09:52:00,SystemResetWarning,0837.4,4.99,000.00,021.5,021.5,000.0,029.7,023.1,8.5,0000.0,0004.21,0003.35,0003.22
2023-10-30 09:53:00,SystemResetWarning,0837.3,5.00,000.00,021.5,021.1,000.0,029.7,022.9,8.5,0000.0,0004.17,0003.34,0003.21
2023-10-30 09:54:00,SystemResetWarning,0837.3,5.00,000.00,021.4,020.8,000.0,029.7,022.8,8.5,0000.0,0004.35,0003.36,0003.21
2023-10-30 09:55:00,SystemResetWarning,0837.4,5.00,000.00,021.4,020.6,000.0,029.7,022.7,8.5,0000.0,0004.31,0003.34,0003.20
2023-10-30 09:56:00,SystemResetWarning,0837.3,5.00,000.00,021.3,020.3,000.0,029.7,022.6,8.5,0000.0,0004.25,0003.33,0003.19
2023-10-30 09:57:00,SystemResetWarning,0837.2,4.99,000.00,021.3,020.2,000.0,029.7,022.5,8.6,0000.0,0004.30,0003.33,0003.18
2023-10-30 09:58:00,SystemResetWarning,0837.2,5.01,000.00,021.2,020.0,000.0,029.7,022.4,8.6,0000.0,0004.66,0003.34,0003.18
2023-10-30 09:59:00,SystemResetWarning,0837.2,5.01,000.00,021.2,019.8,000.0,029.7,022.3,8.6,0000.0,0005.08,0003.37,0003.18
